STARLINK-3963 (52643 NORAD) Tracking and Keplerian Element Data

This shows tracking and keplerian element data for the satellite.

Feedback or suggestion? Click here.




ElementValue
Catalog52643
NameSTARLINK-3963
Epoch Orbit130
Epoch Day228.91667824
Epoch Year2022
RAAN338.6946
Inclination53.2173
Eccentricity0.0001603
Argument of Perigee40.1504
Mean Anonmoly339.1039
Mean Motion15.20316584
Decay Rate-0.01066243
L11 52643U 22052AX 22228.91667824 -.01066243 00000+0 -52931-1 0 9994
L22 52643 53.2173 338.6946 0001603 40.1504 339.1039 15.20316584 1303

Live tracking and technical data element details for STARLINK-3963 (NORAD 52643). STARLINK-3963 can be tracked NOW for your location showing map with azimuth and elevation plus other details from your city location.

Track the satellite on the map from your city or location and see movement details for azimuth, elevation, latitude, longitude, range, height, and movement on the map or in text.







IsCatalogInMostPopularTable: catalog: 52643, numindb: 6
Update: records affected: 1



GetName: 52643 STARLINK-3963

Hit Count: updated at: Thu, 18 Aug 2022 19:56:53 GMT